| time (UTC) | temp F | wind direction | speed knots | gust knots | rain 1hr in | rain 24hr in | rain mn in | humidity % | barometer mb |
| 20260906221232 | 99 | 106 | 5.2 | 9.6 | 0.00 | 0.00 | 0.00 | 36 | 1042.5 |
| 20260906220727 | 101 | 107 | 4.3 | 7.8 | 0.00 | 0.00 | 0.00 | 35 | 1042.5 |
| 20260906220222 | 101 | 102 | 5.2 | 8.7 | 0.00 | 0.00 | 0.00 | 35 | 1042.5 |
| 20260906215721 | 102 | 100 | 6.1 | 10.4 | 0.00 | 0.00 | 0.00 | 35 | 1042.6 |
| 20260906215221 | 102 | 124 | 3.5 | 10.4 | 0.00 | 0.00 | 0.00 | 35 | 1042.5 |
| 20260906214719 | 102 | 109 | 2.6 | 3.5 | 0.00 | 0.00 | 0.00 | 34 | 1042.7 |
| 20260906214215 | 101 | 179 | 2.6 | 4.3 | 0.00 | 0.00 | 0.00 | 35 | 1042.6 |
| 20260906213713 | 100 | 93 | 2.6 | 6.1 | 0.00 | 0.00 | 0.00 | 36 | 1042.6 |
| 20260906213208 | 99 | 91 | 5.2 | 6.1 | 0.00 | 0.00 | 0.00 | 37 | 1042.6 |
| 20260906212705 | 99 | 96 | 6.1 | 7.8 | 0.00 | 0.00 | 0.00 | 36 | 1042.9 |
| 20260906212201 | 100 | 79 | 7.8 | 9.6 | 0.00 | 0.00 | 0.00 | 35 | 1043.0 |
| 20260906211701 | 101 | 108 | 6.1 | 10.4 | 0.00 | 0.00 | 0.00 | 34 | 1043.0 |
| 20260906211156 | 102 | 107 | 6.1 | 10.4 | 0.00 | 0.00 | 0.00 | 35 | 1043.1 |
| 20260906210651 | 103 | 136 | 4.3 | 7.0 | 0.00 | 0.00 | 0.00 | 34 | 1043.2 |
| 20260906210146 | 102 | 250 | 0.0 | 6.1 | 0.00 | 0.00 | 0.00 | 35 | 1043.3 |
| 20260906205641 | 101 | 129 | 4.3 | 4.3 | 0.00 | 0.00 | 0.00 | 36 | 1043.3 |
| 20260906205137 | 99 | 118 | 0.9 | 7.0 | 0.00 | 0.00 | 0.00 | 38 | 1043.7 |
| 20260906204637 | 100 | 151 | 2.6 | 7.8 | 0.00 | 0.00 | 0.00 | 36 | 1043.8 |
| 20260906204132 | 99 | 108 | 4.3 | 9.6 | 0.00 | 0.00 | 0.00 | 38 | 1043.6 |
| 20260906203631 | 100 | 96 | 4.3 | 7.0 | 0.00 | 0.00 | 0.00 | 38 | 1043.7 |
| 20260906203126 | 102 | 116 | 4.3 | 8.7 | 0.00 | 0.00 | 0.00 | 35 | 1043.6 |
| 20260906202623 | 101 | 107 | 4.3 | 6.1 | 0.00 | 0.00 | 0.00 | 36 | 1043.5 |
| 20260906202122 | 101 | 95 | 3.5 | 5.2 | 0.00 | 0.00 | 0.00 | 36 | 1043.8 |
| 20260906201618 | 101 | 107 | 6.1 | 8.7 | 0.00 | 0.00 | 0.00 | 37 | 1043.8 |
| 20260906201117 | 99 | 122 | 5.2 | 10.4 | 0.00 | 0.00 | 0.00 | 39 | 1043.9 |
| 20260906200613 | 98 | 124 | 4.3 | 7.0 | 0.00 | 0.00 | 0.00 | 39 | 1044.1 |
| 20260906200109 | 100 | 135 | 3.5 | 8.7 | 0.00 | 0.00 | 0.00 | 38 | 1044.1 |
| 20260906195604 | 99 | 106 | 6.1 | 11.3 | 0.00 | 0.00 | 0.00 | 39 | 1044.0 |
| 20260906195100 | 99 | 101 | 8.7 | 10.4 | 0.00 | 0.00 | 0.00 | 38 | 1044.2 |
| 20260906194556 | 96 | 126 | 4.3 | 7.0 | 0.00 | 0.00 | 0.00 | 40 | 1044.3 |
| 20260906194051 | 96 | 90 | 7.0 | 10.4 | 0.00 | 0.00 | 0.00 | 41 | 1044.2 |
| 20260906193551 | 97 | 91 | 7.0 | 7.8 | 0.00 | 0.00 | 0.00 | 41 | 1044.4 |
| 20260906193046 | 97 | 101 | 1.7 | 6.1 | 0.00 | 0.00 | 0.00 | 40 | 1044.5 |
| 20260906192542 | 97 | 93 | 6.1 | 10.4 | 0.00 | 0.00 | 0.00 | 40 | 1044.4 |
| 20260906192041 | 98 | 86 | 10.4 | 13.9 | 0.00 | 0.00 | 0.00 | 40 | 1044.5 |
| 20260906191536 | 98 | 81 | 4.3 | 8.7 | 0.00 | 0.00 | 0.00 | 40 | 1044.7 |
| 20260906191035 | 98 | 115 | 7.8 | 12.2 | 0.00 | 0.00 | 0.00 | 41 | 1044.5 |
| 20260906190534 | 97 | 102 | 7.8 | 9.6 | 0.00 | 0.00 | 0.00 | 41 | 1044.7 |
| 20260906190030 | 97 | 90 | 2.6 | 3.5 | 0.00 | 0.00 | 0.00 | 42 | 1044.6 |
| 20260906185528 | 96 | 95 | 7.8 | 9.6 | 0.00 | 0.00 | 0.00 | 42 | 1044.9 |
| 20260906185027 | 96 | 73 | 7.0 | 8.7 | 0.00 | 0.00 | 0.00 | 42 | 1044.8 |
| 20260906184523 | 97 | 101 | 9.6 | 10.4 | 0.00 | 0.00 | 0.00 | 41 | 1045.1 |
| 20260906184018 | 98 | 101 | 12.2 | 13.0 | 0.00 | 0.00 | 0.00 | 41 | 1044.8 |
| 20260906183514 | 99 | 66 | 5.2 | 7.8 | 0.00 | 0.00 | 0.00 | 40 | 1045.0 |
| 20260906183010 | 100 | 117 | 7.0 | 7.8 | 0.00 | 0.00 | 0.00 | 38 | 1045.0 |
| 20260906182505 | 100 | 131 | 4.3 | 9.6 | 0.00 | 0.00 | 0.00 | 38 | 1045.3 |
| 20260906182001 | 100 | 131 | 5.2 | 7.8 | 0.00 | 0.00 | 0.00 | 38 | 1045.1 |
| 20260906181456 | 100 | 101 | 7.0 | 7.8 | 0.00 | 0.00 | 0.00 | 38 | 1045.5 |
| 20260906180952 | 98 | 57 | 4.3 | 7.8 | 0.00 | 0.00 | 0.00 | 41 | 1045.4 |
| 20260906180446 | 96 | 196 | 1.7 | 5.2 | 0.00 | 0.00 | 0.00 | 42 | 1045.4 |
| 20260906175944 | 98 | 124 | 2.6 | 3.5 | 0.00 | 0.00 | 0.00 | 40 | 1045.7 |
| 20260906175439 | 100 | 125 | 4.3 | 5.2 | 0.00 | 0.00 | 0.00 | 39 | 1045.7 |
| 20260906174938 | 100 | 99 | 7.8 | 9.6 | 0.00 | 0.00 | 0.00 | 39 | 1045.7 |
| 20260906174437 | 99 | 108 | 5.2 | 6.1 | 0.00 | 0.00 | 0.00 | 40 | 1045.7 |
| 20260906173933 | 98 | 164 | 2.6 | 7.8 | 0.00 | 0.00 | 0.00 | 41 | 1045.7 |
| 20260906173428 | 98 | 95 | 5.2 | 8.7 | 0.00 | 0.00 | 0.00 | 42 | 1046.1 |
| 20260906172927 | 98 | 89 | 7.8 | 14.8 | 0.00 | 0.00 | 0.00 | 41 | 1046.0 |
| 20260906172424 | 98 | 87 | 5.2 | 12.2 | 0.00 | 0.00 | 0.00 | 40 | 1046.1 |
| 20260906171919 | 98 | 105 | 4.3 | 5.2 | 0.00 | 0.00 | 0.00 | 41 | 1046.4 |
| 20260906171413 | 98 | 106 | 4.3 | 9.6 | 0.00 | 0.00 | 0.00 | 42 | 1046.1 |
| 20260906170909 | 98 | 142 | 2.6 | 7.8 | 0.00 | 0.00 | 0.00 | 42 | 1046.1 |
| 20260906170405 | 97 | 94 | 9.6 | 12.2 | 0.00 | 0.00 | 0.00 | 43 | 1046.2 |
| 20260906165902 | 97 | 113 | 6.1 | 7.8 | 0.00 | 0.00 | 0.00 | 42 | 1046.2 |
| 20260906165401 | 98 | 89 | 3.5 | 11.3 | 0.00 | 0.00 | 0.00 | 42 | 1046.3 |
| 20260906164856 | 98 | 205 | 1.7 | 7.0 | 0.00 | 0.00 | 0.00 | 42 | 1046.2 |
| 20260906164355 | 97 | 281 | 0.9 | 6.1 | 0.00 | 0.00 | 0.00 | 43 | 1046.1 |
| 20260906163851 | 97 | 140 | 5.2 | 7.0 | 0.00 | 0.00 | 0.00 | 42 | 1046.4 |
| 20260906163347 | 96 | 172 | 2.6 | 6.1 | 0.00 | 0.00 | 0.00 | 42 | 1046.2 |
| 20260906162845 | 96 | 134 | 1.7 | 5.2 | 0.00 | 0.00 | 0.00 | 41 | 1046.3 |
| 20260906162343 | 96 | 90 | 5.2 | 7.0 | 0.00 | 0.00 | 0.00 | 42 | 1046.3 |
| 20260906161839 | 96 | 104 | 5.2 | 7.8 | 0.00 | 0.00 | 0.00 | 44 | 1046.4 |
| 20260906161338 | 95 | 116 | 6.1 | 7.8 | 0.00 | 0.00 | 0.00 | 44 | 1046.3 |
| 20260906160837 | 95 | 83 | 5.2 | 7.0 | 0.00 | 0.00 | 0.00 | 45 | 1046.3 |
| 20260906160331 | 95 | 87 | 1.7 | 5.2 | 0.00 | 0.00 | 0.00 | 47 | 1046.1 |
| 20260906155829 | 95 | 100 | 2.6 | 6.1 | 0.00 | 0.00 | 0.00 | 46 | 1046.3 |
| 20260906155323 | 94 | 88 | 3.5 | 5.2 | 0.00 | 0.00 | 0.00 | 48 | 1046.4 |
| 20260906154820 | 94 | 109 | 2.6 | 4.3 | 0.00 | 0.00 | 0.00 | 48 | 1046.3 |
| 20260906154314 | 94 | 97 | 6.1 | 7.8 | 0.00 | 0.00 | 0.00 | 49 | 1046.4 |
| 20260906153812 | 93 | 93 | 5.2 | 7.8 | 0.00 | 0.00 | 0.00 | 48 | 1046.3 |
| 20260906153307 | 94 | 57 | 3.5 | 6.1 | 0.00 | 0.00 | 0.00 | 50 | 1046.4 |
| 20260906152802 | 94 | 138 | 3.5 | 5.2 | 0.00 | 0.00 | 0.00 | 50 | 1046.4 |
| 20260906152257 | 93 | 96 | 2.6 | 4.3 | 0.00 | 0.00 | 0.00 | 51 | 1046.3 |
| 20260906151756 | 93 | 100 | 0.9 | 3.5 | 0.00 | 0.00 | 0.00 | 51 | 1046.1 |
| 20260906151252 | 92 | 104 | 3.5 | 4.3 | 0.00 | 0.00 | 0.00 | 52 | 1046.0 |
| 20260906150747 | 93 | 82 | 3.5 | 3.5 | 0.00 | 0.00 | 0.00 | 54 | 1046.1 |
| 20260906150243 | 92 | 130 | 2.6 | 3.5 | 0.00 | 0.00 | 0.00 | 54 | 1046.3 |
| 20260906145741 | 92 | 36 | 1.7 | 2.6 | 0.00 | 0.00 | 0.00 | 56 | 1046.3 |
| 20260906145240 | 92 | 97 | 1.7 | 2.6 | 0.00 | 0.00 | 0.00 | 56 | 1046.2 |
| 20260906144736 | 90 | 163 | 0.0 | 2.6 | 0.00 | 0.00 | 0.00 | 58 | 1046.6 |
| 20260906144230 | 90 | 155 | 2.6 | 3.5 | 0.00 | 0.00 | 0.00 | 61 | 1046.3 |
| 20260906143730 | 89 | 166 | 0.9 | 2.6 | 0.00 | 0.00 | 0.00 | 61 | 1046.3 |
| 20260906143227 | 88 | 92 | 1.7 | 2.6 | 0.00 | 0.00 | 0.00 | 63 | 1046.4 |
| 20260906142726 | 87 | 95 | 0.9 | 2.6 | 0.00 | 0.00 | 0.00 | 65 | 1046.3 |
| 20260906142222 | 87 | 78 | 2.6 | 4.3 | 0.00 | 0.00 | 0.00 | 65 | 1046.2 |
| 20260906141721 | 87 | 56 | 1.7 | 2.6 | 0.00 | 0.00 | 0.00 | 66 | 1046.3 |
| 20260906141216 | 86 | 89 | 4.3 | 4.3 | 0.00 | 0.00 | 0.00 | 68 | 1046.4 |
| 20260906140715 | 86 | 108 | 4.3 | 4.3 | 0.00 | 0.00 | 0.00 | 69 | 1046.3 |
| 20260906140210 | 85 | 119 | 1.7 | 3.5 | 0.00 | 0.00 | 0.00 | 69 | 1046.3 |
| 20260906135707 | 85 | 158 | 0.9 | 2.6 | 0.00 | 0.00 | 0.00 | 70 | 1046.1 |
| 20260906135203 | 84 | 192 | 1.7 | 2.6 | 0.00 | 0.00 | 0.00 | 71 | 1046.2 |
| 20260906134658 | 84 | 165 | 0.9 | 2.6 | 0.00 | 0.00 | 0.00 | 73 | 1046.0 |
| 20260906134153 | 83 | 187 | 1.7 | 3.5 | 0.00 | 0.00 | 0.00 | 73 | 1046.1 |
| 20260906133649 | 83 | 93 | 1.7 | 2.6 | 0.00 | 0.00 | 0.00 | 74 | 1046.0 |
| 20260906133144 | 83 | 208 | 1.7 | 2.6 | 0.00 | 0.00 | 0.00 | 74 | 1046.2 |
| 20260906132639 | 82 | 180 | 1.7 | 1.7 | 0.00 | 0.00 | 0.00 | 75 | 1046.1 |
| 20260906132135 | 81 | 111 | 2.6 | 2.6 | 0.00 | 0.00 | 0.00 | 77 | 1046.4 |
| 20260906131630 | 80 | 109 | 1.7 | 2.6 | 0.00 | 0.00 | 0.00 | 78 | 1046.3 |
| 20260906131125 | 80 | 111 | 1.7 | 3.5 | 0.00 | 0.00 | 0.00 | 79 | 1046.1 |
| 20260906130620 | 79 | 91 | 2.6 | 2.6 | 0.00 | 0.00 | 0.00 | 80 | 1046.1 |
| 20260906130115 | 79 | 117 | 1.7 | 2.6 | 0.00 | 0.00 | 0.00 | 81 | 1046.0 |
| 20260906125613 | 78 | 92 | 1.7 | 1.7 | 0.00 | 0.00 | 0.00 | 82 | 1046.1 |
| 20260906125106 | 77 | 64 | 0.9 | 2.6 | 0.00 | 0.00 | 0.00 | 82 | 1046.1 |
| 20260906124602 | 77 | 95 | 1.7 | 2.6 | 0.00 | 0.00 | 0.00 | 83 | 1046.0 |
| 20260906124057 | 76 | 79 | 0.0 | 1.7 | 0.00 | 0.00 | 0.00 | 84 | 1045.9 |
| 20260906123556 | 76 | 87 | 0.9 | 2.6 | 0.00 | 0.00 | 0.00 | 85 | 1045.8 |
| 20260906123051 | 75 | 63 | 1.7 | 1.7 | 0.00 | 0.00 | 0.00 | 85 | 1045.7 |
| 20260906122550 | 75 | 51 | 0.9 | 1.7 | 0.00 | 0.00 | 0.00 | 87 | 1045.6 |
| 20260906122047 | 74 | 31 | 0.0 | 1.7 | 0.00 | 0.00 | 0.00 | 87 | 1045.8 |
| 20260906121542 | 74 | 35 | 0.9 | 1.7 | 0.00 | 0.00 | 0.00 | 88 | 1045.9 |
| 20260906121039 | 74 | 350 | 0.0 | 1.7 | 0.00 | 0.00 | 0.00 | 87 | 1045.7 |
| 20260906120533 | 74 | 330 | 1.7 | 2.6 | 0.00 | 0.00 | 0.00 | 87 | 1045.6 |
| 20260906120031 | 74 | 310 | 0.0 | 0.9 | 0.00 | 0.00 | 0.00 | 87 | 1045.5 |
| 20260906115525 | 74 | 345 | 0.0 | 1.7 | 0.00 | 0.00 | 0.00 | 87 | 1045.5 |
| 20260906115020 | 74 | 57 | 1.7 | 1.7 | 0.00 | 0.00 | 0.00 | 87 | 1045.5 |
| 20260906114514 | 74 | 72 | 1.7 | 2.6 | 0.00 | 0.00 | 0.00 | 86 | 1045.4 |
| 20260906114010 | 75 | 56 | 0.9 | 1.7 | 0.00 | 0.00 | 0.00 | 86 | 1045.4 |
| 20260906113509 | 75 | 27 | 1.7 | 1.7 | 0.00 | 0.00 | 0.00 | 86 | 1045.5 |
| 20260906113004 | 74 | 58 | 1.7 | 1.7 | 0.00 | 0.00 | 0.00 | 87 | 1045.8 |
| 20260906112459 | 74 | 333 | 0.0 | 1.7 | 0.00 | 0.00 | 0.00 | 87 | 1045.5 |
| 20260906111955 | 74 | 283 | 0.0 | 0.9 | 0.00 | 0.00 | 0.00 | 87 | 1045.5 |
| 20260906111454 | 74 | 292 | 0.0 | 1.7 | 0.00 | 0.00 | 0.00 | 86 | 1045.3 |
| 20260906110949 | 75 | 346 | 0.0 | 0.9 | 0.00 | 0.00 | 0.00 | 86 | 1045.3 |
| 20260906110445 | 75 | 347 | 0.0 | 0.9 | 0.00 | 0.00 | 0.00 | 86 | 1045.3 |
| 20260906105944 | 74 | 62 | 0.0 | 1.7 | 0.00 | 0.00 | 0.00 | 86 | 1045.1 |
| 20260906105439 | 74 | 109 | 0.0 | 1.7 | 0.00 | 0.00 | 0.00 | 86 | 1045.0 |
| 20260906104935 | 74 | 292 | 0.0 | 1.7 | 0.00 | 0.00 | 0.00 | 86 | 1045.0 |
| 20260906104434 | 75 | 287 | 0.0 | 1.7 | 0.00 | 0.00 | 0.00 | 85 | 1044.6 |
| 20260906103927 | 75 | 331 | 0.0 | 1.7 | 0.00 | 0.00 | 0.00 | 84 | 1044.8 |
| 20260906103426 | 75 | 329 | 0.9 | 1.7 | 0.00 | 0.00 | 0.00 | 84 | 1045.0 |
| 20260906102921 | 75 | 288 | 0.9 | 0.9 | 0.00 | 0.00 | 0.00 | 84 | 1044.7 |
| 20260906102421 | 75 | 324 | 0.0 | 1.7 | 0.00 | 0.00 | 0.00 | 84 | 1044.9 |
| 20260906101915 | 75 | 19 | 0.0 | 1.7 | 0.00 | 0.00 | 0.00 | 84 | 1044.8 |
| 20260906101411 | 75 | 20 | 0.0 | 2.6 | 0.00 | 0.00 | 0.00 | 84 | 1044.8 |
| 20260906100906 | 76 | 49 | 1.7 | 2.6 | 0.00 | 0.00 | 0.00 | 83 | 1044.8 |
| 20260906100406 | 76 | 64 | 0.9 | 2.6 | 0.00 | 0.00 | 0.00 | 83 | 1044.5 |
| 20260906095900 | 76 | 9 | 1.7 | 2.6 | 0.00 | 0.00 | 0.00 | 83 | 1044.6 |
| 20260906095355 | 76 | 6 | 1.7 | 1.7 | 0.00 | 0.00 | 0.00 | 83 | 1044.7 |
| 20260906094850 | 76 | 350 | 0.9 | 1.7 | 0.00 | 0.00 | 0.00 | 82 | 1044.7 |
| 20260906094345 | 76 | 47 | 0.0 | 1.7 | 0.00 | 0.00 | 0.00 | 82 | 1044.6 |
| 20260906093841 | 76 | 194 | 0.0 | 0.9 | 0.00 | 0.00 | 0.00 | 82 | 1044.5 |
| 20260906093337 | 76 | 275 | 0.0 | 0.9 | 0.00 | 0.00 | 0.00 | 82 | 1044.3 |
| 20260906092831 | 76 | 306 | 0.0 | 1.7 | 0.00 | 0.00 | 0.00 | 82 | 1044.3 |
| 20260906092326 | 76 | 284 | 0.0 | 1.7 | 0.00 | 0.00 | 0.00 | 81 | 1044.3 |
| 20260906091821 | 76 | 298 | 0.9 | 0.9 | 0.00 | 0.00 | 0.00 | 81 | 1044.4 |
| 20260906091317 | 76 | 244 | 0.0 | 0.9 | 0.00 | 0.00 | 0.00 | 81 | 1044.6 |
| 20260906090814 | 77 | 319 | 0.0 | 0.9 | 0.00 | 0.00 | 0.00 | 80 | 1044.4 |
| 20260906090313 | 77 | 335 | 0.0 | 1.7 | 0.00 | 0.00 | 0.00 | 80 | 1044.4 |
| 20260906085813 | 77 | 24 | 0.9 | 1.7 | 0.00 | 0.00 | 0.00 | 79 | 1044.5 |
| 20260906085311 | 77 | 347 | 0.0 | 1.7 | 0.00 | 0.00 | 0.00 | 79 | 1044.5 |
| 20260906084806 | 77 | 338 | 1.7 | 1.7 | 0.00 | 0.00 | 0.00 | 79 | 1044.2 |
| 20260906084300 | 77 | 13 | 1.7 | 1.7 | 0.00 | 0.00 | 0.00 | 79 | 1044.3 |
| 20260906083755 | 77 | 248 | 0.0 | 1.7 | 0.00 | 0.00 | 0.00 | 78 | 1044.2 |
| 20260906083251 | 77 | 119 | 0.0 | 1.7 | 0.00 | 0.00 | 0.00 | 78 | 1044.2 |
| 20260906082745 | 77 | 73 | 0.0 | 0.9 | 0.00 | 0.00 | 0.00 | 78 | 1044.3 |
| 20260906082240 | 78 | 319 | 0.0 | 0.9 | 0.00 | 0.00 | 0.00 | 77 | 1044.2 |
| 20260906081736 | 78 | 266 | 0.0 | 0.9 | 0.00 | 0.00 | 0.00 | 77 | 1044.1 |
| 20260906081231 | 78 | 348 | 0.0 | 0.9 | 0.00 | 0.00 | 0.00 | 77 | 1043.9 |
| 20260906080728 | 78 | 224 | 0.0 | 1.7 | 0.00 | 0.00 | 0.00 | 77 | 1044.2 |
| 20260906080224 | 78 | 171 | 0.0 | 2.6 | 0.00 | 0.00 | 0.00 | 76 | 1044.2 |
| 20260906075723 | 78 | 69 | 0.0 | 0.9 | 0.00 | 0.00 | 0.00 | 76 | 1044.2 |
| 20260906075218 | 79 | 286 | 0.0 | 1.7 | 0.00 | 0.00 | 0.00 | 75 | 1044.0 |
| 20260906074713 | 79 | 193 | 0.0 | 1.7 | 0.00 | 0.00 | 0.00 | 75 | 1043.9 |
| 20260906074212 | 79 | 7 | 0.9 | 0.9 | 0.00 | 0.00 | 0.00 | 75 | 1043.7 |
| 20260906073707 | 79 | 114 | 0.0 | 2.6 | 0.00 | 0.00 | 0.00 | 74 | 1044.0 |
| 20260906073203 | 79 | 166 | 0.9 | 1.7 | 0.00 | 0.00 | 0.00 | 74 | 1043.9 |
| 20260906072658 | 79 | 249 | 0.0 | 0.9 | 0.00 | 0.00 | 0.00 | 74 | 1043.9 |
| 20260906072154 | 80 | 149 | 0.9 | 1.7 | 0.00 | 0.00 | 0.00 | 74 | 1044.1 |
| 20260906071650 | 80 | 306 | 0.0 | 2.6 | 0.00 | 0.00 | 0.00 | 73 | 1044.4 |
| 20260906071149 | 80 | 232 | 0.9 | 1.7 | 0.00 | 0.00 | 0.00 | 73 | 1044.2 |
| 20260906070646 | 80 | 192 | 0.0 | 3.5 | 0.00 | 0.00 | 0.00 | 73 | 1044.3 |
| 20260906070141 | 80 | 249 | 0.9 | 1.7 | 0.00 | 0.00 | 0.00 | 73 | 1044.2 |
| 20260906065641 | 80 | 293 | 0.9 | 1.7 | 0.00 | 0.00 | 0.00 | 73 | 1044.2 |
| 20260906065136 | 80 | 125 | 0.0 | 1.7 | 0.00 | 0.00 | 0.00 | 73 | 1044.4 |
| 20260906064632 | 80 | 192 | 0.0 | 1.7 | 0.00 | 0.00 | 0.00 | 73 | 1044.1 |
| 20260906064127 | 80 | 243 | 1.7 | 1.7 | 0.00 | 0.00 | 0.00 | 73 | 1044.0 |
| 20260906063622 | 80 | 285 | 0.9 | 0.9 | 0.00 | 0.00 | 0.00 | 73 | 1044.4 |
| 20260906063118 | 80 | 288 | 0.0 | 1.7 | 0.00 | 0.00 | 0.00 | 72 | 1044.1 |
| 20260906062613 | 80 | 322 | 0.9 | 1.7 | 0.00 | 0.00 | 0.00 | 72 | 1044.4 |
| 20260906062112 | 80 | 286 | 0.9 | 2.6 | 0.00 | 0.00 | 0.00 | 72 | 1044.2 |
| 20260906061609 | 80 | 278 | 1.7 | 2.6 | 0.00 | 0.00 | 0.00 | 72 | 1044.4 |
| 20260906061108 | 80 | 295 | 0.9 | 1.7 | 0.00 | 0.00 | 0.00 | 73 | 1044.5 |
| 20260906060605 | 80 | 289 | 0.0 | 0.9 | 0.00 | 0.00 | 0.00 | 72 | 1044.5 |
| 20260906055557 | 80 | 345 | 0.0 | 0.9 | 0.00 | 0.00 | 0.00 | 71 | 1044.5 |
| 20260906055052 | 81 | 236 | 0.0 | 1.7 | 0.00 | 0.00 | 0.00 | 70 | 1044.3 |
| 20260906054552 | 81 | 170 | 0.0 | 0.9 | 0.00 | 0.00 | 0.00 | 70 | 1044.4 |
| 20260906054048 | 81 | 251 | 0.0 | 1.7 | 0.00 | 0.00 | 0.00 | 70 | 1044.5 |
| 20260906053544 | 81 | 136 | 0.0 | 0.9 | 0.00 | 0.00 | 0.00 | 70 | 1044.3 |
| 20260906053039 | 81 | 183 | 0.0 | 0.9 | 0.00 | 0.00 | 0.00 | 69 | 1044.2 |
| 20260906052535 | 81 | 197 | 1.7 | 1.7 | 0.00 | 0.00 | 0.00 | 69 | 1044.5 |
| 20260906052032 | 82 | 259 | 0.0 | 1.7 | 0.00 | 0.00 | 0.00 | 68 | 1044.5 |
| 20260906051527 | 82 | 171 | 1.7 | 1.7 | 0.00 | 0.00 | 0.00 | 68 | 1044.4 |
| 20260906051022 | 82 | 229 | 0.9 | 2.6 | 0.00 | 0.00 | 0.00 | 68 | 1044.4 |
| 20260906050517 | 82 | 256 | 0.9 | 1.7 | 0.00 | 0.00 | 0.00 | 68 | 1044.6 |
| 20260906050012 | 82 | 284 | 0.0 | 1.7 | 0.00 | 0.00 | 0.00 | 67 | 1044.2 |
| 20260906045510 | 82 | 335 | 0.9 | 1.7 | 0.00 | 0.00 | 0.00 | 67 | 1044.3 |
| 20260906045006 | 82 | 253 | 0.0 | 1.7 | 0.00 | 0.00 | 0.00 | 67 | 1044.3 |
| 20260906044501 | 82 | 257 | 0.9 | 1.7 | 0.00 | 0.00 | 0.00 | 66 | 1044.3 |
| 20260906043957 | 83 | 255 | 0.0 | 0.9 | 0.00 | 0.00 | 0.00 | 65 | 1044.4 |
| 20260906043452 | 83 | 175 | 0.0 | 1.7 | 0.00 | 0.00 | 0.00 | 65 | 1044.7 |
| 20260906042949 | 82 | 190 | 0.9 | 2.6 | 0.00 | 0.00 | 0.00 | 66 | 1044.2 |
| 20260906042448 | 82 | 255 | 0.0 | 0.9 | 0.00 | 0.00 | 0.00 | 65 | 1044.4 |
| 20260906041947 | 83 | 243 | 0.0 | 0.9 | 0.00 | 0.00 | 0.00 | 65 | 1044.5 |
| 20260906041444 | 83 | 148 | 0.0 | 0.9 | 0.00 | 0.00 | 0.00 | 64 | 1044.3 |
| 20260906040943 | 83 | 239 | 0.0 | 1.7 | 0.00 | 0.00 | 0.00 | 64 | 1044.6 |
| 20260906040438 | 83 | 289 | 0.0 | 1.7 | 0.00 | 0.00 | 0.00 | 63 | 1044.4 |
| 20260906035934 | 83 | 144 | 0.0 | 0.9 | 0.00 | 0.00 | 0.00 | 63 | 1044.6 |
| 20260906035429 | 84 | 96 | 0.0 | 0.9 | 0.00 | 0.00 | 0.00 | 62 | 1044.5 |
| 20260906034924 | 84 | 203 | 0.0 | 1.7 | 0.00 | 0.00 | 0.00 | 61 | 1044.5 |
| 20260906034419 | 84 | 205 | 0.0 | 0.9 | 0.00 | 0.00 | 0.00 | 61 | 1044.6 |
| 20260906033914 | 84 | 134 | 0.0 | 0.0 | 0.00 | 0.00 | 0.00 | 61 | 1044.5 |
| 20260906033409 | 85 | 255 | 0.0 | 1.7 | 0.00 | 0.00 | 0.00 | 60 | 1044.5 |
| 20260906032904 | 85 | 156 | 0.0 | 0.9 | 0.00 | 0.00 | 0.00 | 60 | 1044.4 |
| 20260906032401 | 85 | 177 | 0.0 | 2.6 | 0.00 | 0.00 | 0.00 | 59 | 1044.5 |
| 20260906031855 | 86 | 92 | 0.0 | 2.6 | 0.00 | 0.00 | 0.00 | 58 | 1044.3 |
| 20260906031351 | 86 | 120 | 2.6 | 3.5 | 0.00 | 0.00 | 0.00 | 57 | 1044.3 |
| 20260906030845 | 86 | 111 | 1.7 | 1.7 | 0.00 | 0.00 | 0.00 | 57 | 1044.1 |
| 20260906030341 | 86 | 107 | 0.9 | 4.3 | 0.00 | 0.00 | 0.00 | 57 | 1044.1 |
| 20260906025835 | 86 | 99 | 1.7 | 4.3 | 0.00 | 0.00 | 0.00 | 56 | 1044.2 |
| 20260906025329 | 87 | 109 | 0.0 | 0.0 | 0.00 | 0.00 | 0.00 | 55 | 1044.0 |
| 20260906024828 | 86 | 204 | 0.0 | 0.9 | 0.00 | 0.00 | 0.00 | 55 | 1044.0 |
| 20260906024327 | 86 | 303 | 0.0 | 0.9 | 0.00 | 0.00 | 0.00 | 55 | 1043.9 |
| 20260906023823 | 86 | 149 | 0.0 | 0.0 | 0.00 | 0.00 | 0.00 | 55 | 1043.8 |
| 20260906023319 | 86 | 319 | 0.0 | 0.0 | 0.00 | 0.00 | 0.00 | 56 | 1043.8 |
| 20260906022814 | 86 | 319 | 0.0 | 0.0 | 0.00 | 0.00 | 0.00 | 56 | 1043.6 |
| 20260906022309 | 86 | 319 | 0.0 | 0.0 | 0.00 | 0.00 | 0.00 | 56 | 1043.6 |
| 20260906021805 | 86 | 344 | 0.0 | 0.9 | 0.00 | 0.00 | 0.00 | 56 | 1043.6 |
| 20260906021304 | 87 | 323 | 0.9 | 0.9 | 0.00 | 0.00 | 0.00 | 56 | 1043.4 |
| 20260906020759 | 87 | 262 | 0.0 | 0.0 | 0.00 | 0.00 | 0.00 | 54 | 1043.3 |
| 20260906020258 | 88 | 326 | 0.0 | 0.9 | 0.00 | 0.00 | 0.00 | 53 | 1043.5 |
| 20260906015758 | 88 | 69 | 0.0 | 1.7 | 0.00 | 0.00 | 0.00 | 52 | 1043.3 |
| 20260906015257 | 88 | 36 | 0.0 | 0.9 | 0.00 | 0.00 | 0.00 | 53 | 1043.2 |
| 20260906014752 | 88 | 95 | 0.9 | 1.7 | 0.00 | 0.00 | 0.00 | 52 | 1043.2 |
| 20260906014247 | 88 | 45 | 0.0 | 0.9 | 0.00 | 0.00 | 0.00 | 52 | 1043.0 |
| 20260906013743 | 88 | 25 | 0.0 | 1.7 | 0.00 | 0.00 | 0.00 | 52 | 1043.1 |
| 20260906013243 | 88 | 97 | 0.9 | 1.7 | 0.00 | 0.00 | 0.00 | 52 | 1043.1 |
| 20260906012739 | 88 | 70 | 0.0 | 0.0 | 0.00 | 0.00 | 0.00 | 52 | 1043.2 |
| 20260906012233 | 89 | 75 | 0.0 | 0.9 | 0.00 | 0.00 | 0.00 | 52 | 1042.9 |
| 20260906011729 | 89 | 149 | 0.0 | 0.0 | 0.00 | 0.00 | 0.00 | 51 | 1043.0 |
| 20260906011223 | 90 | 200 | 0.0 | 0.9 | 0.00 | 0.00 | 0.00 | 50 | 1043.1 |
| 20260906010718 | 90 | 95 | 0.9 | 1.7 | 0.00 | 0.00 | 0.00 | 49 | 1042.8 |
| 20260906010214 | 91 | 92 | 0.0 | 0.9 | 0.00 | 0.00 | 0.00 | 48 | 1042.8 |
| 20260906005709 | 91 | 109 | 0.0 | 1.7 | 0.00 | 0.00 | 0.00 | 47 | 1042.9 |
| 20260906005209 | 91 | 83 | 1.7 | 1.7 | 0.00 | 0.00 | 0.00 | 47 | 1042.7 |
| 20260906004708 | 91 | 82 | 0.0 | 0.0 | 0.00 | 0.00 | 0.00 | 47 | 1042.7 |
| 20260906004203 | 92 | 95 | 0.0 | 0.0 | 0.00 | 0.00 | 0.00 | 46 | 1042.7 |
| 20260906003658 | 93 | 52 | 0.0 | 2.6 | 0.00 | 0.00 | 0.00 | 45 | 1042.8 |
| 20260906003153 | 93 | 88 | 0.9 | 2.6 | 0.00 | 0.00 | 0.00 | 44 | 1042.5 |
| 20260906002648 | 94 | 88 | 2.6 | 2.6 | 0.00 | 0.00 | 0.00 | 43 | 1042.7 |
| 20260906002143 | 95 | 101 | 2.6 | 2.6 | 0.00 | 0.00 | 0.00 | 42 | 1042.8 |
| 20260906001638 | 95 | 104 | 0.9 | 1.7 | 0.00 | 0.00 | 0.00 | 42 | 1042.7 |
| 20260906001138 | 95 | 86 | 1.7 | 2.6 | 0.00 | 0.00 | 0.00 | 41 | 1042.5 |
| 20260906000633 | 96 | 96 | 3.5 | 3.5 | 0.00 | 0.00 | 0.00 | 40 | 1042.7 |
| 20260906000129 | 97 | 92 | 4.3 | 6.1 | 0.00 | 0.00 | 0.00 | 39 | 1042.6 |
| 20260905235628 | 98 | 91 | 4.3 | 7.0 | 0.00 | 0.00 | 0.00 | 38 | 1042.5 |
| 20260905235123 | 98 | 91 | 5.2 | 6.1 | 0.00 | 0.00 | 0.00 | 38 | 1042.6 |
| 20260905234618 | 98 | 88 | 2.6 | 5.2 | 0.00 | 0.00 | 0.00 | 38 | 1042.4 |
| 20260905234114 | 99 | 86 | 5.2 | 7.0 | 0.00 | 0.00 | 0.00 | 37 | 1042.4 |
| 20260905233608 | 99 | 118 | 2.6 | 5.2 | 0.00 | 0.00 | 0.00 | 36 | 1042.4 |
| 20260905233102 | 99 | 130 | 2.6 | 3.5 | 0.00 | 0.00 | 0.00 | 36 | 1042.5 |
| 20260905232558 | 98 | 108 | 4.3 | 7.0 | 0.00 | 0.00 | 0.00 | 37 | 1042.4 |
| 20260905232054 | 99 | 85 | 5.2 | 8.7 | 0.00 | 0.00 | 0.00 | 37 | 1042.6 |
| 20260905231548 | 99 | 87 | 7.0 | 7.8 | 0.00 | 0.00 | 0.00 | 37 | 1042.5 |
| 20260905231045 | 99 | 85 | 4.3 | 7.0 | 0.00 | 0.00 | 0.00 | 36 | 1042.5 |
| 20260905230544 | 99 | 91 | 6.1 | 7.8 | 0.00 | 0.00 | 0.00 | 36 | 1042.4 |
| 20260905230043 | 99 | 83 | 7.0 | 8.7 | 0.00 | 0.00 | 0.00 | 36 | 1042.6 |
| 20260905225537 | 100 | 90 | 8.7 | 9.6 | 0.00 | 0.00 | 0.00 | 35 | 1042.4 |
| 20260905225032 | 99 | 93 | 5.2 | 6.1 | 0.00 | 0.00 | 0.00 | 36 | 1042.4 |
| 20260905224527 | 99 | 34 | 3.5 | 7.0 | 0.00 | 0.00 | 0.00 | 36 | 1042.7 |
| 20260905224026 | 98 | 98 | 4.3 | 4.3 | 0.00 | 0.00 | 0.00 | 37 | 1042.4 |
| 20260905223524 | 97 | 97 | 3.5 | 5.2 | 0.00 | 0.00 | 0.00 | 38 | 1042.5 |
| 20260905223019 | 97 | 112 | 3.5 | 3.5 | 0.00 | 0.00 | 0.00 | 37 | 1042.3 |
| 20260905222514 | 98 | 113 | 1.7 | 4.3 | 0.00 | 0.00 | 0.00 | 37 | 1042.4 |
| 20260905222009 | 98 | 91 | 4.3 | 7.0 | 0.00 | 0.00 | 0.00 | 36 | 1042.5 |